Flag for Papua New Guinea Weather past 2 weeks in Port Moresby, Papua New Guinea

Now
84 °F

Fog.


Feels Like: 91 °F
Forecast: 75 / 86 °F
Wind: N/A

Location: Moresby

Current Time: Mar 28, 2015 at 10:36:19 AM

Latest Report: Mar 28, 2015 at 9:00 AM


Visibility: N/A

Pressure: 29.92 "Hg

Humidity: 70%

Dew point: 73 °F

Location of Port MoresbyLocation

Historic Weather in Port Moresby — Graph

°F

Port Moresby temperature yesterday

Maximum temperature yesterday: 86 °F (at 4:00 PM)
Minimum temperature yesterday: 75 °F (at 4:00 AM)
Average temperature yesterday: 80 °F

Past Weeks' High & Low Weather Summary

 TemperatureHumidityPressure
High90 °F (Mar 13, 2:00 PM)100% (Mar 15, 9:00 PM)29.92 "Hg (Mar 15, 9:00 PM)
Low41 °F (Mar 23, 5:00 AM)17% (Mar 18, 1:00 PM)29.56 "Hg (Mar 13, 3:00 PM)
Average80 °F82%29.81 "Hg
* Reported Mar 13 9:00 AM — Mar 28 9:00 AM, Port Moresby, Weather by CustomWeather, © 2015

Note: Actual official high and low records may vary slightly from our data, if they occured in-between our weather recording intervals... More about our weather records

Advertising

Port Moresby weather history for previous 24 hours

 ConditionsComfort  
Time TempWeatherWind HumidityBarometerVisibility
9:00 AM
Sat, Mar 28
84 °FFog.N/A70%29.92 "HgN/A
8:00 AM79 °FPartly sunny.2 mph84%29.89 "HgN/A
7:00 AM75 °FScattered clouds.No wind94%29.86 "HgN/A
6:00 AM75 °FPassing clouds.No wind94%29.86 "HgN/A
5:00 AM75 °FPassing clouds.No wind94%29.83 "HgN/A
4:00 AM75 °FPassing clouds.No wind89%29.83 "HgN/A
3:00 AM75 °FPassing clouds.No wind89%29.83 "HgN/A
2:00 AM75 °FPassing clouds.No wind89%29.83 "HgN/A
1:00 AM75 °FPassing clouds.2 mph89%N/AN/A
12:00 AM75 °FPassing clouds.2 mph89%29.86 "HgN/A
11:00 PM
Fri, Mar 27
77 °FMostly cloudy.No wind83%29.89 "HgN/A
10:00 PM77 °FMostly cloudy.6 mph89%29.89 "HgN/A
9:00 PM77 °FMostly cloudy.No wind94%29.89 "HgN/A
8:00 PM79 °FPassing clouds.No wind84%29.86 "HgN/A
7:00 PM81 °FMostly cloudy.No wind79%29.83 "HgN/A
6:00 PM82 °FCloudy.No wind66%29.83 "HgN/A
5:00 PM82 °FBroken clouds.3 mph74%29.80 "HgN/A
4:00 PM86 °FBroken clouds.2 mph62%29.77 "HgN/A
3:00 PM84 °FMore clouds than sun.2 mph62%29.80 "HgN/A
2:00 PM82 °FBroken clouds.3 mph70%29.83 "HgN/A
1:00 PM82 °FBroken clouds.3 mph74%29.83 "HgN/A
12:00 PM84 °FBroken clouds.2 mph66%29.86 "HgN/A
11:00 AM84 °FPartly sunny.3 mph70%29.92 "HgN/A
10:00 AM82 °FBroken clouds.3 mph74%29.92 "HgN/A
Weather by CustomWeather, © 2015

See weather overviewHow to use our weather pages